Theta_e
315 315 320 323 323 324 325 330 331 336 340 327 324 322 318 324 324 323 323 321 323 323 323 321 322 321 320 321 320 321 323 325 327 325 327 334 329 325 324 323 329 331 335 340 338 335 337 340 341 342 342 342 343 343 343 343 342 341 342 341 340 340 341 339 339 338 337 337 335 333 334 335 334 336 336 336 336 335 334 335 334 335 338 338 339 339 339 339 339 339 337 335 333 332 330 329 328
318 319 322 323 324 323 328 337 334 337 339 320 319 322 317 327 324 323 327 323 326 324 325 324 322 323 321 321 319 320 322 323 325 324 330 331 326 326 323 325 330 330 335 339 338 334 336 340 341 342 341 341 342 342 343 342 342 342 341 341 340 339 339 339 338 337 337 337 336 334 333 335 334 334 334 335 336 335 334 334 334 334 337 338 339 339 339 339 339 338 336 335 334 333 332 331 329
322 322 323 322 324 324 337 342 334 337 332 316 320 328 320 322 323 325 329 325 327 324 324 323 322 323 321 322 320 320 323 321 323 333 336 328 328 326 322 329 331 330 334 337 338 335 335 339 340 342 341 341 341 341 341 341 341 341 341 341 340 339 339 338 337 337 337 336 337 336 335 335 336 335 335 336 336 335 334 334 334 334 337 339 338 339 339 339 338 336 334 333 333 334 333 332 332
323 324 324 322 329 335 344 337 338 339 325 319 319 325 327 322 324 326 328 327 327 324 323 323 322 322 320 322 321 318 322 319 320 336 338 326 327 324 322 330 332 332 334 337 339 335 334 337 339 340 341 341 340 341 341 341 341 340 340 340 340 339 337 337 337 337 336 336 336 336 336 336 336 337 337 338 337 335 334 334 334 335 337 338 338 338 338 337 336 334 333 332 331 333 333 332 331
323 325 322 322 333 335 336 329 336 334 321 326 319 321 330 323 324 324 323 324 324 323 323 323 322 321 319 321 321 320 322 320 318 326 328 324 326 323 323 329 332 335 336 338 339 337 334 335 338 339 340 341 340 341 341 341 340 340 339 339 340 338 336 336 337 337 336 336 336 336 336 336 337 338 338 338 338 335 333 334 334 334 337 338 338 337 337 336 335 332 331 331 329 329 332 330 326
323 325 322 321 323 324 334 326 326 330 328 334 323 320 326 322 324 322 321 321 322 323 322 322 322 320 320 322 320 320 321 319 319 324 325 324 325 324 324 326 332 336 337 338 338 337 334 334 337 337 339 340 340 341 341 341 340 340 339 339 340 335 334 336 335 336 335 336 336 336 336 336 338 338 339 338 338 336 332 333 333 334 337 337 337 336 335 334 333 331 329 329 328 327 328 323 316
322 324 328 329 323 325 336 327 326 333 328 329 326 323 323 323 323 321 321 320 321 321 321 322 320 319 320 321 319 318 320 318 319 324 324 322 322 323 325 325 330 335 337 338 337 337 335 334 335 336 337 337 340 340 340 340 340 340 339 339 337 331 332 335 334 335 336 336 335 336 337 338 338 338 339 338 337 335 332 333 334 335 336 337 336 335 334 333 332 331 329 328 328 325 320 313 307
323 323 330 339 336 335 334 327 332 334 321 319 324 324 323 325 324 322 322 320 321 321 322 323 321 320 319 319 321 320 319 320 321 322 322 322 320 322 324 324 328 333 337 337 337 337 334 333 334 335 336 336 338 339 339 339 339 339 338 338 335 330 332 336 335 335 336 336 336 336 338 338 338 338 338 338 337 335 332 334 336 335 335 336 336 335 333 332 330 329 329 328 326 320 311 304 301
322 321 328 336 335 338 337 329 327 325 324 321 318 322 323 323 324 323 322 321 320 322 323 324 320 320 320 320 324 321 319 323 322 321 321 320 319 320 323 323 325 329 334 337 338 337 334 333 333 335 336 336 336 337 338 338 338 338 337 337 335 332 334 336 335 335 336 336 337 337 338 338 338 338 338 338 337 336 333 335 336 334 334 334 335 334 333 331 329 328 328 327 324 316 308 302 299
326 324 327 335 335 332 329 327 326 321 323 325 318 320 322 321 323 322 322 320 319 321 321 320 319 319 320 320 324 321 320 324 321 320 320 320 320 320 323 324 323 325 330 335 337 338 335 333 332 334 335 335 336 336 336 337 337 336 336 337 335 334 334 335 335 335 336 337 337 339 338 337 338 338 338 338 337 336 334 335 335 333 332 333 333 333 333 331 329 327 327 327 325 316 306 300 299
335 334 335 339 333 325 322 324 330 328 326 325 321 321 321 321 322 322 321 318 318 319 317 317 319 321 319 320 326 321 320 324 320 319 318 319 320 319 322 325 326 326 327 331 336 338 337 334 332 333 334 335 336 336 336 336 336 335 336 337 336 336 334 333 333 334 336 337 337 339 338 337 338 338 338 338 336 335 334 335 333 333 332 332 332 332 331 330 328 327 327 326 322 312 303 299 299
334 338 346 340 326 324 326 326 328 335 335 324 320 321 320 320 321 320 320 317 317 318 317 318 318 319 319 321 325 319 320 323 319 318 318 319 320 319 322 326 329 329 329 330 334 337 338 337 334 333 334 334 335 336 336 335 336 335 336 336 336 336 334 332 331 333 334 336 337 337 337 337 338 338 338 337 336 335 334 334 332 332 330 330 331 331 329 328 327 326 326 324 316 306 300 298 299
330 333 341 328 323 325 323 325 328 335 336 324 319 321 318 319 321 319 319 318 318 318 317 319 317 317 319 321 323 322 322 321 319 318 317 318 320 321 323 326 329 332 333 333 333 335 338 339 337 335 334 334 335 335 335 335 336 336 336 336 336 336 334 332 331 331 332 334 336 336 336 337 338 338 338 337 336 335 333 333 331 330 328 327 328 329 328 326 326 325 326 323 313 303 299 298 299
326 331 334 321 326 330 321 324 327 324 325 325 322 320 318 317 320 320 319 318 320 318 316 319 317 317 318 317 328 335 326 319 319 320 318 319 321 322 327 329 327 329 333 334 333 333 336 339 339 337 335 335 335 336 336 336 335 336 337 336 336 336 334 334 333 332 331 332 334 335 336 338 338 338 338 337 336 334 334 332 331 329 327 326 326 327 327 326 325 325 325 321 312 303 298 298 298
323 338 340 326 329 331 324 322 324 321 319 325 321 316 319 316 317 320 318 317 320 318 314 316 315 316 317 315 326 331 320 319 321 321 319 320 322 324 328 331 330 329 331 334 334 332 335 338 340 339 338 337 335 336 336 336 336 335 336 336 336 336 336 336 335 334 333 332 332 334 336 338 338 338 338 337 335 335 333 332 331 328 328 327 325 325 326 325 325 324 324 320 312 303 298 298 298
329 345 338 328 328 324 324 322 325 325 319 325 322 316 319 317 316 317 317 316 317 318 315 316 315 315 318 316 318 318 316 320 322 322 320 322 325 326 329 331 331 332 333 334 334 333 334 337 339 339 339 338 337 336 336 336 336 335 336 336 336 337 338 337 336 335 335 333 332 333 336 338 338 338 338 337 336 335 333 332 330 328 328 326 324 324 325 325 324 324 324 319 311 302 298 298 298
339 343 332 326 327 323 326 324 322 322 319 325 324 317 318 318 318 316 315 316 318 320 319 318 315 315 318 317 315 313 316 320 322 323 323 325 327 328 329 330 330 332 334 334 334 334 334 336 337 338 339 339 338 337 336 336 336 336 336 336 337 337 338 338 337 336 336 334 332 333 335 337 338 338 337 337 336 334 333 332 330 329 328 327 324 323 324 325 324 324 323 317 307 300 298 298 298
340 335 324 325 329 329 332 324 318 319 318 321 320 318 317 318 319 317 315 318 321 320 319 317 315 314 315 315 314 313 316 319 321 322 324 327 328 328 329 329 329 329 331 334 334 334 335 335 336 336 338 338 338 338 337 337 337 337 337 337 337 337 338 338 337 336 335 334 333 333 335 337 337 337 337 336 336 334 333 332 330 329 328 327 324 321 322 324 324 324 320 310 303 299 298 298 298
336 333 322 330 338 334 329 322 317 318 318 319 320 318 316 317 317 316 316 318 319 318 317 316 316 315 313 313 313 313 315 318 321 321 323 325 326 327 326 326 328 326 326 328 330 332 334 335 335 335 336 337 338 338 337 337 338 338 338 338 337 337 338 338 337 336 334 334 333 333 335 337 337 337 336 336 335 334 333 332 330 329 328 327 325 320 319 323 323 323 318 308 300 299 298 297 298
332 330 324 339 343 331 326 321 317 317 317 319 321 319 318 319 318 316 316 318 318 317 317 316 317 317 315 314 312 312 316 318 320 320 320 320 321 322 322 322 323 323 321 321 323 327 330 332 334 334 334 336 337 337 338 338 338 338 338 338 338 337 338 338 337 336 334 333 333 334 336 337 337 336 336 335 334 333 332 331 330 329 328 326 325 321 316 320 323 322 318 309 300 299 298 297 298
324 325 328 341 333 324 326 324 321 318 317 318 320 320 318 319 317 316 316 317 317 317 317 317 316 316 316 316 311 311 316 318 320 320 320 319 319 319 319 320 319 319 319 319 320 321 324 327 329 331 333 334 335 335 336 336 337 337 338 338 338 338 338 338 337 336 334 333 333 334 336 337 337 336 336 335 334 333 332 331 329 328 327 326 325 322 316 318 322 321 317 307 300 299 297 298 297
321 323 328 335 326 320 324 325 321 318 318 318 319 319 317 317 317 317 317 317 317 316 317 318 317 316 315 315 312 310 313 316 316 318 319 319 319 319 318 319 319 319 319 319 319 319 320 322 324 327 330 332 333 334 334 334 335 336 336 337 337 338 338 338 337 335 334 333 334 334 335 336 336 336 336 335 334 333 331 330 329 328 327 326 325 323 317 316 320 320 316 306 300 299 297 297 297
322 324 325 327 322 319 322 321 319 318 318 318 319 317 316 318 318 318 318 317 317 316 316 317 316 314 312 312 311 312 315 314 311 312 315 315 316 317 317 317 318 319 319 319 319 319 319 320 322 325 327 330 330 332 334 334 334 333 333 335 336 337 337 337 335 334 334 334 334 335 335 335 335 336 336 335 334 333 332 330 329 328 327 326 325 323 319 315 317 318 316 308 302 299 298 297 297
320 323 324 324 320 320 321 319 318 318 316 317 318 315 316 318 318 318 318 317 316 315 313 313 311 310 310 311 312 312 311 309 307 308 309 310 310 311 313 314 315 317 318 319 320 320 320 320 321 323 325 327 329 331 333 334 333 332 332 332 334 335 336 336 333 333 334 334 334 335 336 335 335 336 335 335 334 332 331 330 329 328 327 326 325 324 321 316 315 317 316 310 304 300 298 297 297
320 321 321 320 319 320 320 317 318 318 316 315 315 315 316 316 316 316 317 315 316 314 313 312 311 311 311 310 309 308 307 306 306 307 307 307 308 309 310 310 312 314 315 316 318 319 320 321 322 323 324 326 327 330 333 334 334 333 332 332 333 334 335 334 333 333 333 334 334 334 335 336 335 335 335 334 333 332 330 329 328 327 326 326 325 324 322 317 315 316 316 312 306 302 299 297 298
318 316 316 316 317 317 317 316 317 316 315 313 314 316 315 314 315 315 318 317 315 314 314 314 312 313 312 308 306 307 308 307 306 306 307 306 307 308 308 309 310 311 312 314 315 317 318 321 323 323 324 325 327 330 331 332 333 334 333 333 333 333 333 333 333 333 333 333 334 333 334 335 335 335 334 333 332 331 330 329 328 327 326 326 325 324 322 318 315 316 316 313 308 305 301 297 298
315 314 315 316 316 315 315 316 315 313 313 313 313 315 314 314 315 315 319 320 315 314 315 313 312 312 309 306 306 306 306 306 305 306 305 305 306 306 306 308 309 309 311 313 315 316 317 319 321 323 325 325 326 328 330 331 333 333 334 333 333 333 333 333 333 333 333 333 333 333 333 334 335 334 334 333 332 331 329 328 328 327 326 326 325 324 322 319 316 316 315 313 310 307 304 300 297
313 314 315 317 316 316 315 314 314 313 313 315 315 316 315 313 314 317 318 318 314 315 316 313 312 312 307 306 307 305 304 304 304 304 304 304 304 304 305 306 307 310 312 313 316 317 317 318 319 322 325 326 327 327 328 330 332 332 333 333 333 333 333 334 334 333 333 332 333 333 333 334 334 334 333 333 331 330 329 328 327 326 326 325 325 324 322 318 316 317 317 315 314 310 308 304 299
314 313 315 317 317 317 316 315 314 313 314 316 315 316 318 316 316 319 317 315 314 315 315 312 310 308 306 306 305 303 304 303 303 303 303 303 303 304 304 305 307 310 312 315 317 318 318 318 319 322 325 326 327 327 328 329 330 332 333 333 333 333 333 334 333 333 333 332 332 332 333 333 333 333 333 332 331 330 329 328 327 326 326 325 324 324 321 318 316 318 319 318 316 313 311 308 301
315 314 313 315 317 319 318 314 313 313 314 316 315 317 323 322 318 319 315 312 313 316 315 311 308 306 305 306 304 303 302 301 302 302 302 302 302 303 303 305 307 310 313 316 318 319 320 320 320 323 325 327 327 327 328 329 330 331 332 333 333 333 332 332 332 332 332 332 332 332 332 332 332 332 332 332 331 330 329 328 327 326 325 325 324 323 321 318 316 318 319 319 317 314 312 308 302
314 312 317 318 315 324 324 315 315 315 314 314 314 318 322 323 319 319 315 310 312 315 313 310 307 306 306 305 303 303 301 301 301 300 301 301 301 302 302 304 306 309 312 314 315 318 321 323 323 325 326 328 328 329 329 330 331 331 332 332 332 332 331 331 331 331 331 331 331 331 331 331 331 331 331 331 330 330 329 327 326 326 325 325 324 322 321 318 316 317 318 319 317 316 313 307 302
320 314 325 326 316 323 326 316 317 316 314 312 313 318 320 319 319 321 316 310 312 314 311 310 308 306 305 304 303 302 301 300 300 300 300 300 300 301 301 303 305 307 309 311 313 316 319 322 323 325 326 327 328 328 329 330 330 331 331 331 331 331 331 331 331 331 330 330 330 330 330 330 330 330 330 330 329 329 328 327 327 326 325 324 323 322 320 318 316 317 318 318 317 315 312 307 302
328 318 324 330 319 320 322 319 318 315 314 312 313 317 318 318 320 321 316 310 311 312 310 309 307 306 304 303 302 301 300 300 299 299 299 299 300 300 301 302 303 305 306 309 311 314 316 319 321 323 325 325 326 326 327 328 329 329 330 330 330 330 330 330 330 330 330 329 330 330 330 330 330 330 329 329 328 328 328 327 327 326 325 324 323 321 319 317 316 317 317 317 316 314 311 307 303
332 322 319 325 321 318 320 323 319 315 316 314 313 314 315 317 318 318 315 311 311 311 310 308 306 305 304 302 301 300 300 299 299 299 299 299 299 299 300 301 302 304 305 307 309 311 313 316 318 321 322 323 324 325 325 326 326 327 327 327 328 328 328 329 329 329 329 328 329 329 329 329 329 329 329 328 328 327 327 327 326 326 325 324 323 321 319 318 317 317 318 316 315 314 312 308 304
329 324 320 323 322 318 320 322 320 317 318 317 316 316 316 316 316 315 313 310 313 314 309 307 305 304 303 302 301 300 299 299 298 298 298 298 298 299 299 300 301 302 304 305 307 309 311 313 316 318 319 320 321 322 323 323 324 324 325 325 325 326 326 326 326 327 327 327 327 327 327 327 327 328 328 328 328 327 326 326 326 325 324 323 322 320 319 318 317 317 317 316 314 313 311 309 306
323 322 321 323 322 321 319 319 319 317 315 318 318 318 317 317 318 316 312 312 314 314 309 306 305 303 302 301 300 300 299 298 298 297 297 297 297 298 298 299 300 301 302 304 305 307 308 310 313 314 315 316 317 317 318 319 320 320 321 322 322 322 322 323 323 323 323 324 324 324 325 325 326 326 326 327 326 326 325 325 325 324 323 322 321 320 319 318 318 317 317 316 314 312 309 306 304
317 317 319 320 320 320 318 318 321 316 315 320 318 317 319 319 319 315 312 316 314 310 308 305 304 303 302 301 300 299 299 298 297 297 297 297 297 297 297 298 300 301 301 302 303 303 304 306 308 309 311 313 314 314 315 316 316 317 317 318 318 318 318 319 319 320 320 320 321 321 321 322 323 323 324 324 323 324 323 323 323 323 322 321 320 320 319 318 318 317 316 315 313 311 308 305 302
314 315 317 319 318 319 318 318 319 315 315 322 318 316 321 321 317 313 313 317 313 308 307 305 304 303 301 301 300 299 299 298 297 296 296 296 296 296 296 297 298 298 299 301 302 302 303 304 304 305 307 309 310 311 313 314 314 315 315 315 315 315 315 315 315 315 315 316 317 317 317 318 319 319 320 320 320 321 320 320 320 320 320 320 320 319 318 318 317 316 315 312 310 309 307 305 301
315 317 317 320 320 320 321 319 319 315 315 323 322 317 320 319 314 310 310 311 308 306 306 304 303 302 301 300 299 299 298 297 296 295 295 295 295 295 296 296 296 296 297 299 301 302 303 303 303 304 305 306 307 308 309 310 310 312 312 312 313 313 311 310 311 310 310 311 310 310 311 312 313 314 315 316 316 316 317 317 317 317 317 316 317 316 316 315 315 315 313 312 309 306 304 303 300
319 320 318 321 320 319 322 321 321 319 315 320 320 317 321 319 313 310 307 306 305 304 303 303 302 301 301 300 299 298 297 297 296 295 294 294 294 294 294 295 295 295 295 297 298 300 301 301 302 302 303 304 305 306 306 307 308 308 308 308 309 309 308 307 308 307 307 307 306 305 305 306 307 308 310 311 312 313 313 313 313 314 314 313 313 313 313 313 313 313 312 311 308 304 303 302 301
325 324 320 322 321 320 323 322 321 323 320 319 317 321 330 325 317 312 307 305 305 303 303 302 302 301 300 299 298 298 297 296 296 295 294 293 293 293 293 294 294 294 294 295 295 296 297 299 300 301 301 302 303 304 305 306 306 306 306 306 306 306 305 305 304 304 304 304 304 304 303 303 303 303 305 306 308 309 309 309 310 310 311 311 311 310 310 310 310 310 310 309 307 305 303 302 301
327 327 322 321 322 322 322 322 322 325 325 319 315 324 335 332 323 315 308 307 306 304 303 302 301 301 300 299 298 297 297 296 295 294 294 293 293 293 293 293 293 293 293 294 294 295 296 296 298 299 300 300 301 302 303 304 304 304 304 304 303 302 301 300 300 301 302 303 303 303 303 303 303 302 302 302 303 304 305 306 306 307 307 307 308 308 308 308 308 308 308 307 306 305 304 301 300
324 325 324 323 323 323 324 322 322 326 325 319 317 323 328 329 328 317 309 309 307 304 303 302 301 300 299 299 298 297 297 296 295 294 293 292 293 292 292 293 293 293 293 293 294 294 295 296 297 297 298 299 299 300 301 302 302 302 301 300 300 299 298 298 299 300 300 301 302 302 302 302 303 302 302 301 301 301 301 302 302 303 304 304 305 305 306 306 306 306 306 306 305 305 303 300 299
326 324 325 328 325 323 325 320 320 323 321 321 322 319 318 323 325 315 310 310 307 305 304 302 301 300 299 299 298 298 297 296 296 295 293 292 292 292 292 292 292 292 292 292 293 293 294 295 295 296 297 297 298 298 299 299 299 299 299 299 298 298 297 298 298 299 300 300 301 300 300 301 301 301 301 301 301 301 301 300 300 300 301 301 302 302 303 304 304 304 303 303 303 303 302 300 299
326 322 322 325 321 321 325 320 320 320 316 323 327 317 316 324 323 311 309 312 309 306 304 302 301 300 299 299 298 298 297 296 295 294 293 292 292 292 291 291 292 291 292 292 292 292 292 293 294 295 296 295 296 297 297 297 297 297 297 297 296 296 296 297 297 298 298 298 299 298 299 299 299 299 299 300 300 300 300 300 300 300 300 300 300 300 300 301 302 302 302 302 301 300 300 300 299
320 318 321 325 323 323 323 320 321 319 316 322 326 319 317 326 325 313 309 314 313 306 303 302 301 300 299 299 298 298 297 296 295 293 292 292 292 291 291 291 291 291 291 291 292 292 292 292 293 293 293 293 294 295 296 296 295 296 296 295 295 295 295 296 296 296 296 296 296 296 296 296 297 297 298 298 298 298 299 299 299 299 299 299 299 299 299 299 299 300 300 301 301 300 299 299 298
315 319 324 328 328 325 324 324 322 319 321 324 324 320 317 323 328 319 311 312 311 306 303 302 301 300 299 299 298 298 297 297 296 293 292 292 292 291 291 291 290 290 291 291 291 291 291 291 291 291 291 291 292 292 293 293 293 293 293 292 292 292 292 293 293 292 292 293 293 292 293 293 294 294 295 296 296 296 296 297 298 298 299 299 299 299 299 298 298 298 298 298 299 299 299 299 298
317 323 325 325 328 327 325 326 322 320 326 329 323 318 316 321 326 318 310 308 306 306 304 301 300 300 299 299 298 298 297 297 297 295 293 292 292 291 291 290 290 290 290 290 290 290 290 290 290 290 290 290 290 290 291 291 290 290 290 290 290 289 289 289 289 288 288 289 289 289 289 290 290 291 292 293 293 293 294 294 295 296 297 298 298 298 298 298 298 297 297 297 297 298 298 298 298
320 323 324 324 325 322 321 324 322 322 325 322 319 318 317 321 319 311 307 305 305 306 303 300 299 299 299 299 299 298 298 297 297 296 293 291 291 291 290 290 290 289 289 289 289 289 289 289 289 289 288 288 288 288 289 289 288 288 288 288 287 287 287 287 286 286 286 286 286 286 286 286 287 287 288 288 289 290 291 292 293 293 294 295 296 297 297 297 297 297 297 297 297 297 297 297 297
316 319 324 325 323 319 321 322 318 319 322 318 316 317 319 322 315 306 304 302 302 303 301 300 299 298 299 299 299 298 297 297 296 295 293 290 290 290 289 289 289 289 289 288 289 289 289 289 288 288 288 287 287 287 287 287 287 286 286 286 286 286 286 285 285 285 285 285 285 285 285 285 285 285 285 285 286 287 288 288 290 291 292 293 294 294 295 295 295 295 296 296 296 296 296 296 296
315 320 321 322 325 324 323 322 319 321 325 319 315 316 324 325 313 303 301 300 299 301 300 299 299 298 299 298 298 298 297 296 295 294 291 290 290 290 289 289 289 288 288 288 288 288 288 288 288 288 288 287 287 287 287 287 286 286 286 286 286 286 285 285 285 285 285 285 285 285 285 285 285 285 285 285 285 285 286 286 286 287 288 289 290 292 292 293 293 293 294 294 295 295 295 295 295
315 317 318 318 324 324 320 322 323 322 324 321 319 321 320 315 306 301 301 300 299 299 298 298 299 298 298 298 298 298 297 296 295 294 292 290 290 290 289 289 289 289 288 288 288 288 288 288 287 288 288 288 288 287 287 287 287 287 286 286 286 286 286 286 286 286 285 286 286 286 286 286 286 286 286 286 286 286 285 285 285 285 286 286 287 288 289 290 291 292 292 293 293 294 294 294 294
316 314 321 322 319 320 322 323 320 318 320 321 322 321 314 309 307 303 301 301 300 299 298 298 299 299 299 299 298 297 296 296 295 294 292 290 291 291 290 290 289 289 289 288 288 288 287 287 287 287 287 287 287 287 287 287 287 287 287 286 286 286 286 286 286 286 286 286 286 286 286 286 286 286 286 286 286 286 286 286 286 286 286 285 285 285 286 287 288 289 290 291 292 292 292 293 293
318 319 324 320 315 320 324 324 322 320 321 321 321 320 315 315 314 305 301 303 301 299 299 299 299 299 299 298 298 298 297 295 295 293 291 290 291 291 291 290 290 290 290 289 288 287 287 287 287 287 287 287 287 287 287 287 286 286 286 286 286 286 286 286 286 286 286 286 286 286 286 286 286 286 286 286 286 286 286 286 286 286 286 286 286 286 285 285 285 286 287 287 289 289 290 291 292
317 321 319 316 318 322 322 321 322 321 319 321 324 321 318 319 316 309 306 305 302 300 300 299 299 299 298 298 298 298 297 296 295 294 292 290 291 291 291 291 291 291 290 290 289 288 288 287 287 286 286 286 286 286 286 286 286 286 286 286 286 286 286 286 286 287 287 287 287 287 287 286 286 286 286 286 286 286 286 286 286 286 286 286 286 286 286 285 285 285 285 285 286 286 287 288 289
313 316 314 316 319 321 321 318 321 322 319 320 322 319 321 324 319 316 314 305 301 301 300 299 299 298 298 298 298 297 297 296 296 296 293 290 291 291 291 292 292 291 291 291 290 290 289 288 287 286 286 286 286 286 286 286 286 286 286 286 286 286 286 286 286 286 286 286 286 286 286 286 286 286 286 286 285 285 285 285 285 285 285 285 286 286 285 285 285 285 285 285 285 285 285 285 286
315 317 316 316 316 317 320 317 319 323 321 321 319 316 323 324 315 314 313 305 301 301 300 299 298 298 298 298 297 297 297 296 297 296 292 290 291 291 291 292 292 292 292 291 291 291 290 289 288 287 286 286 286 286 286 286 286 286 286 286 286 286 286 286 286 286 285 285 285 285 285 285 285 285 285 285 285 285 285 284 284 284 284 284 285 285 285 285 284 284 284 285 285 285 285 285 285
323 324 320 319 318 319 319 317 318 320 319 321 319 317 322 319 309 310 309 304 301 300 300 299 299 299 298 297 297 297 297 297 298 296 291 290 291 291 292 292 292 292 292 292 291 290 290 289 288 287 287 286 286 286 286 286 286 286 285 285 285 285 285 285 286 285 285 285 285 284 284 284 284 284 284 284 284 284 284 284 284 284 284 283 283 284 284 284 284 284 284 284 284 284 284 285 285
Wind_Speed
9 8 7 7 9 8 4 4 3 2 4 2 1 1 2 2 0 2 1 2 1 3 4 2 2 2 1 2 4 5 4 5 5 3 3 4 2 11 18 18 11 10 19 22 27 30 30 29 27 27 26 25 24 23 22 21 20 19 18 17 17 15 14 12 12 11 11 11 10 11 12 11 11 9 8 8 7 8 9 8 8 8 7 8 8 8 8 8 7 6 5 4 5 6 6 6 5
8 7 5 6 7 4 1 3 4 3 5 3 2 1 2 3 2 4 5 4 4 4 3 2 0 1 2 2 3 1 3 6 6 3 3 1 3 12 18 19 14 12 17 21 26 30 30 30 28 27 26 26 26 25 23 22 21 19 18 17 17 16 15 14 14 13 13 12 11 11 11 11 10 9 8 7 7 7 8 7 7 6 6 7 8 8 8 8 6 3 2 2 3 5 5 5 3
7 6 6 5 3 3 1 4 4 2 5 3 2 3 1 2 1 5 8 6 7 4 1 0 1 1 3 4 1 3 3 4 4 2 1 3 4 11 19 18 14 13 16 19 25 29 30 30 28 28 26 26 26 25 24 23 21 20 19 17 17 16 15 15 15 15 14 13 12 11 10 10 9 9 8 8 7 6 8 7 6 5 6 7 8 8 8 7 5 2 1 1 3 5 5 4 2
7 7 7 4 2 3 4 4 2 4 3 2 1 4 2 3 5 6 7 6 6 1 1 1 1 2 2 2 1 1 3 3 4 4 2 7 6 10 19 16 13 15 16 18 23 28 30 30 29 28 27 26 25 25 24 23 23 21 20 18 17 17 16 16 16 16 15 14 14 13 11 11 10 9 9 9 8 7 7 7 6 7 7 8 8 8 7 6 4 1 2 1 2 4 4 3 2
6 6 6 3 3 2 3 3 2 4 3 4 2 4 5 6 5 5 6 5 4 1 2 2 1 2 1 2 2 1 4 2 3 5 5 10 9 11 17 14 14 17 18 18 21 26 29 30 29 28 27 26 23 24 24 23 23 21 21 20 17 17 16 17 17 16 16 15 14 13 12 12 11 10 10 9 9 9 7 7 7 7 7 8 8 7 6 5 3 1 0 0 3 4 5 3 2
6 4 4 4 3 1 3 3 2 1 4 5 4 5 6 6 5 4 3 4 2 1 3 2 0 1 1 3 2 3 4 1 2 6 7 10 10 13 15 13 15 17 19 19 20 24 28 30 30 28 27 26 23 23 24 22 22 20 20 19 18 18 17 18 18 17 16 16 15 14 13 12 11 11 11 11 10 9 7 8 9 8 8 8 7 6 5 4 2 0 1 1 3 5 5 3 2
7 3 3 5 2 2 4 3 2 3 4 5 5 6 6 7 6 3 3 2 2 2 0 1 2 3 2 3 1 3 2 2 2 4 7 10 11 14 15 14 15 17 19 19 19 22 27 30 30 29 28 27 24 23 24 23 21 19 19 18 17 19 18 18 18 17 16 15 15 14 13 12 12 12 12 11 11 9 8 9 10 9 9 9 8 7 5 3 2 0 1 0 2 4 3 2 1
6 2 1 4 2 3 4 2 3 3 2 3 4 6 7 7 5 3 1 0 0 2 1 3 1 2 3 3 1 4 1 3 4 6 8 10 12 14 16 15 16 18 19 19 19 20 25 30 30 30 29 27 25 24 25 24 22 20 19 18 17 19 18 17 17 17 16 15 15 14 14 13 13 13 13 13 11 10 9 10 10 9 9 8 8 8 6 4 2 1 1 1 4 3 1 1 1
4 3 1 3 2 3 3 1 2 2 3 4 3 4 5 6 4 3 0 2 1 1 3 4 0 1 4 5 3 5 3 3 6 8 9 10 11 14 16 15 15 17 18 19 18 19 23 28 30 30 29 28 27 25 25 25 23 21 20 19 18 18 17 17 17 16 16 16 15 15 14 14 14 14 14 14 13 11 10 10 10 9 8 8 8 9 8 5 3 2 2 4 6 5 2 1 3
4 3 2 2 3 3 4 2 2 1 5 5 4 5 3 2 2 4 1 2 2 1 5 2 1 2 3 4 4 3 2 4 7 9 9 10 11 13 16 15 14 15 17 19 18 18 21 26 29 30 29 28 28 27 25 25 24 22 21 20 20 19 18 17 16 16 16 16 15 15 14 15 15 15 15 15 13 12 11 11 10 9 8 8 8 9 9 7 5 3 4 8 9 6 3 1 4
3 4 3 4 4 2 1 2 4 4 6 5 4 6 4 1 3 3 2 2 2 3 3 1 1 3 1 3 5 2 1 6 7 8 9 10 11 12 16 16 15 15 16 18 18 18 19 23 27 29 29 29 28 27 26 25 25 24 22 22 21 19 19 18 18 17 17 17 16 16 16 15 16 15 16 15 14 12 11 11 11 9 8 9 9 9 9 9 8 5 5 8 7 4 1 3 5
3 4 4 4 2 2 2 2 5 5 7 4 3 5 2 2 3 1 1 1 2 4 3 1 1 2 2 4 5 4 2 8 8 6 8 10 10 11 15 17 16 16 17 16 17 19 19 21 25 28 29 29 29 28 27 26 26 25 24 23 22 20 19 19 18 18 18 18 17 17 16 16 16 16 16 15 14 13 12 12 10 9 9 9 9 8 7 8 8 6 8 9 5 3 2 4 5
3 1 4 2 2 2 2 2 5 4 5 2 3 4 2 2 1 3 2 1 2 4 4 6 3 3 0 4 4 5 2 8 7 5 8 9 9 11 15 17 16 17 18 17 18 18 19 21 23 26 28 29 29 29 28 27 26 25 25 24 22 21 20 19 19 19 19 19 18 18 17 16 16 16 17 16 14 14 13 12 10 9 8 7 8 9 7 7 7 7 11 11 5 2 4 5 6
2 2 4 1 1 0 2 2 3 3 2 4 3 4 3 1 3 4 3 3 5 2 2 5 5 2 2 3 4 5 3 7 7 7 8 8 9 12 15 16 16 17 18 19 19 19 20 21 22 24 26 29 30 30 29 28 27 27 26 25 23 23 22 21 20 20 19 20 20 19 18 17 17 17 18 17 15 14 13 11 10 9 7 6 8 9 8 7 8 10 12 10 6 3 4 6 6
3 2 4 2 2 3 2 2 1 4 1 5 3 3 3 2 1 1 1 1 6 4 1 1 4 1 2 1 4 5 3 5 8 9 9 9 10 12 15 15 15 16 18 20 20 20 21 21 23 24 26 28 30 31 30 29 29 28 28 26 25 24 24 23 21 21 20 21 21 20 20 18 18 19 19 18 17 15 13 12 11 9 7 7 7 10 9 8 10 12 12 10 7 4 5 6 6
3 3 5 3 1 2 2 1 2 3 2 5 3 2 3 5 1 1 3 3 4 4 1 2 3 2 4 4 7 7 6 4 9 10 10 11 11 12 14 15 16 16 18 20 21 21 21 22 23 24 26 28 30 31 31 31 30 29 29 28 27 26 26 25 23 22 21 21 22 22 21 19 19 20 20 19 18 16 14 13 12 10 9 8 8 11 10 10 12 13 13 12 9 6 6 7 7
3 4 4 2 1 2 3 2 2 1 5 6 6 3 1 6 3 1 2 3 2 6 4 5 3 2 6 6 6 7 7 6 10 10 10 11 12 13 13 15 17 17 19 21 22 22 22 23 24 25 26 27 29 31 32 32 31 30 30 29 29 28 27 26 25 24 22 22 23 23 22 21 21 22 22 20 19 17 16 14 13 11 10 9 9 11 12 11 11 12 13 13 10 7 7 7 7
4 3 3 0 2 3 5 5 3 1 3 5 5 1 2 4 4 3 2 3 4 7 8 6 5 6 9 11 10 9 7 8 11 12 11 12 12 13 15 15 17 19 20 21 22 22 23 24 24 25 26 28 29 30 32 32 32 31 31 31 30 29 28 28 27 25 24 23 23 24 23 22 23 23 23 21 20 18 17 16 14 13 12 11 11 12 13 13 12 11 11 13 11 9 9 9 8
3 3 2 2 5 5 5 5 3 1 3 5 5 3 3 4 2 2 2 5 6 7 10 8 8 10 9 11 11 9 7 10 12 14 14 14 15 15 16 17 18 19 21 22 23 23 24 25 25 26 27 28 29 31 32 32 33 32 32 32 31 30 30 30 28 26 25 25 25 25 24 23 24 24 23 22 21 19 18 17 16 15 14 13 11 12 14 14 14 13 12 13 12 10 10 10 9
2 3 1 5 6 5 5 5 5 5 4 3 5 3 3 5 2 1 2 6 6 6 10 8 10 12 8 6 6 5 8 11 13 14 15 17 19 19 19 19 21 22 22 21 21 23 25 26 27 27 27 27 29 30 32 32 33 33 33 33 33 32 31 31 29 27 26 26 26 26 25 24 24 25 24 23 21 20 19 18 17 16 15 14 13 13 14 15 15 15 15 14 12 11 11 10 10
1 3 4 6 4 3 7 6 4 5 3 2 5 4 7 6 2 1 3 6 7 7 8 8 12 14 11 7 4 4 8 10 13 15 16 18 20 22 23 24 24 24 21 19 20 23 24 26 27 28 28 28 28 30 31 33 33 33 34 34 34 33 32 31 30 29 28 27 27 27 26 25 26 25 24 24 23 21 20 20 19 18 17 15 14 14 15 17 17 17 17 15 14 12 12 11 11
2 2 5 6 3 3 8 5 3 3 1 4 5 5 6 4 2 2 2 6 7 6 7 9 11 12 11 10 7 4 6 9 12 14 17 20 22 23 25 26 26 24 22 21 22 21 22 24 26 27 28 28 29 30 30 31 32 32 33 34 34 34 33 32 31 30 29 29 28 28 27 27 27 26 26 25 24 23 22 21 21 20 19 18 17 16 16 19 20 21 20 17 15 14 14 13 13
2 4 3 5 4 4 6 4 4 4 3 6 3 4 3 4 7 4 4 9 10 9 7 8 11 13 12 9 8 7 6 6 8 11 14 16 19 21 22 22 22 22 23 24 22 20 20 21 24 27 27 28 29 29 29 30 31 32 32 33 34 34 34 33 32 31 30 30 29 28 28 28 28 28 27 26 25 24 23 23 22 22 21 20 19 18 18 21 22 23 22 19 16 16 15 14 14
4 4 4 5 4 6 6 4 6 5 5 7 2 4 4 5 7 3 6 12 13 11 6 7 13 15 13 8 7 7 7 8 9 9 10 12 13 12 12 14 16 17 19 22 21 20 20 19 22 25 26 27 28 28 29 29 30 30 30 31 32 34 34 34 32 32 31 30 29 29 29 29 29 28 28 27 26 25 25 24 24 23 22 21 20 20 20 22 24 24 23 20 18 17 16 15 15
4 4 4 4 3 6 7 6 8 8 7 6 2 6 8 8 3 3 11 16 15 10 3 6 9 10 9 7 8 7 8 12 15 17 20 21 20 17 16 15 11 10 11 16 19 20 21 20 21 23 25 26 27 28 28 29 29 29 29 29 31 32 33 33 32 31 31 31 30 29 29 30 30 29 29 28 27 26 26 25 25 24 24 22 22 22 22 24 26 26 25 22 20 18 17 17 16
4 4 3 4 5 6 7 7 8 7 5 2 4 11 10 6 2 4 13 15 12 7 6 7 5 7 7 8 9 9 10 13 16 16 19 23 25 24 24 23 19 15 11 9 13 16 18 19 20 21 22 24 25 27 27 28 28 28 29 29 29 30 31 31 30 30 30 30 31 30 30 31 31 30 29 28 28 27 27 26 26 25 24 24 23 23 23 25 27 27 27 25 21 19 18 18 17
3 3 4 5 6 7 5 7 9 6 5 4 6 12 9 3 1 3 10 11 7 7 8 7 7 7 7 10 8 10 12 13 16 17 19 24 26 25 25 25 23 20 17 13 9 9 10 12 15 18 20 22 24 25 26 27 28 28 28 28 28 28 28 29 29 29 29 29 30 30 30 30 31 31 30 29 29 28 28 27 27 26 26 25 24 24 24 25 28 28 27 26 23 21 19 18 18
1 1 6 7 6 8 7 7 9 4 4 6 8 7 6 2 2 6 11 9 6 8 9 6 8 6 9 10 8 10 11 14 18 19 20 20 21 21 23 24 24 22 20 19 14 7 4 5 8 12 16 20 22 23 24 25 26 27 27 27 27 27 26 27 27 27 27 28 29 29 30 31 31 31 30 30 29 29 29 28 27 27 26 25 24 24 24 25 27 28 27 26 24 21 19 19 19
1 2 4 8 7 8 10 6 3 3 2 5 8 2 6 1 6 11 11 8 8 9 8 7 8 7 9 8 8 9 10 15 19 20 18 18 19 20 22 23 23 22 21 19 16 11 5 2 3 7 12 16 19 20 22 23 24 24 25 25 26 26 26 26 26 26 26 26 27 28 29 30 31 31 31 30 30 30 30 29 28 27 26 25 24 23 24 25 27 27 26 25 24 22 21 21 21
2 2 0 5 6 6 9 2 1 1 2 6 6 1 6 6 9 12 9 5 7 9 7 8 8 7 8 7 8 8 11 15 17 19 19 20 21 22 23 24 24 23 21 20 18 17 11 4 1 5 9 12 15 18 19 20 21 22 22 22 23 23 24 24 24 24 24 24 24 25 26 28 29 30 31 31 31 31 30 29 28 28 27 25 24 23 23 25 27 27 26 26 25 23 22 22 23
2 1 1 2 2 5 8 3 0 2 1 5 5 2 6 9 10 12 8 2 3 7 7 8 7 7 7 7 8 7 10 14 16 19 20 21 21 22 24 25 25 24 23 23 22 22 18 12 6 1 6 9 12 15 16 17 18 19 19 19 19 19 20 21 21 21 22 22 22 23 24 25 26 27 29 30 30 30 30 29 28 27 26 25 24 23 23 25 27 27 27 26 25 23 22 23 24
2 0 3 3 2 5 11 7 2 2 2 3 5 2 5 8 10 13 8 1 2 5 6 8 7 8 7 6 7 7 8 13 18 21 22 22 22 23 24 25 26 26 26 25 24 24 23 20 16 10 5 0 5 8 10 11 12 13 13 14 14 15 15 17 18 19 20 20 21 22 23 24 25 26 27 29 30 30 30 30 29 28 27 25 24 23 23 25 26 27 27 26 26 25 23 24 25
3 1 3 3 3 2 7 7 1 3 1 3 2 2 4 6 8 12 9 5 6 6 6 8 7 7 7 6 6 6 6 10 15 20 22 22 22 23 24 25 26 26 27 27 26 25 25 24 22 20 17 12 8 4 1 2 4 5 7 7 8 9 10 12 15 16 17 18 19 20 21 22 24 26 27 28 29 30 30 30 29 28 27 26 24 23 23 24 26 26 27 26 26 26 25 25 25
4 0 2 4 4 3 3 5 5 4 4 1 2 2 5 8 8 12 12 8 8 6 6 7 7 6 6 6 6 7 7 8 10 16 20 22 23 24 24 26 26 27 28 28 28 27 26 25 24 23 22 19 16 14 12 10 7 6 4 4 3 3 5 7 9 11 13 14 15 16 17 19 22 25 26 27 28 28 29 29 28 28 27 26 25 24 24 24 25 26 27 27 26 26 26 26 26
4 3 3 3 3 4 4 5 4 6 5 2 4 4 8 10 10 11 10 8 8 6 8 7 6 7 6 6 7 7 8 8 10 15 19 21 23 24 25 27 28 29 29 29 29 28 27 26 24 23 22 20 18 16 15 14 13 13 12 11 10 9 6 4 2 3 4 6 8 10 11 14 17 21 24 26 26 27 27 27 27 27 26 26 25 24 24 25 25 26 27 27 27 27 27 26 26
6 5 4 3 4 5 5 5 5 2 4 5 6 6 7 9 10 9 7 6 6 6 8 6 6 7 6 6 6 6 8 8 10 15 19 21 23 25 26 28 28 30 30 30 30 30 29 28 26 25 22 19 17 16 16 15 15 14 13 13 14 14 13 10 9 7 5 3 2 2 4 8 12 16 19 22 23 24 24 25 25 25 26 25 25 25 26 26 27 28 28 28 28 27 26 25 24
3 2 2 4 5 6 5 6 7 1 1 6 5 4 5 7 9 8 7 5 7 7 7 7 6 6 6 6 6 7 7 7 10 16 20 22 25 26 28 29 30 31 31 31 32 32 31 30 28 27 24 20 18 17 17 17 17 16 16 16 16 16 15 14 14 14 12 10 9 8 6 4 5 9 12 15 17 20 21 22 23 24 25 25 25 26 26 27 28 29 29 28 27 27 26 25 23
2 3 3 5 5 6 6 5 7 1 2 5 3 2 7 9 7 7 6 6 7 5 7 7 6 6 5 6 6 6 5 6 10 15 19 23 25 27 29 31 31 31 31 32 33 32 31 31 30 28 26 23 22 20 18 18 18 17 17 17 16 16 16 16 17 16 15 14 13 12 11 9 7 6 6 7 9 12 15 18 20 22 23 24 25 26 27 27 28 28 28 27 26 26 26 25 24
3 2 2 4 4 4 6 5 5 1 3 4 3 2 8 8 3 6 6 6 5 5 7 6 6 7 6 6 6 5 6 6 8 11 17 22 25 27 29 30 30 29 30 33 32 32 31 31 31 29 27 25 23 21 19 20 19 17 17 17 16 16 17 16 15 15 15 14 15 14 12 11 9 8 8 8 9 9 9 11 14 17 19 21 23 24 26 26 27 28 28 27 25 24 24 24 24
3 3 3 4 4 1 4 5 4 2 1 3 3 3 7 5 3 7 6 6 7 7 9 8 6 7 6 6 5 5 6 7 8 9 13 19 23 26 28 28 29 29 31 33 32 32 31 30 29 28 27 26 23 21 20 20 19 19 19 18 17 17 17 15 14 15 15 15 16 15 15 14 12 10 8 8 9 10 11 11 11 12 14 16 19 21 22 23 25 26 27 28 26 23 23 24 25
4 6 6 5 4 5 5 4 4 4 4 2 3 5 5 5 2 4 4 5 7 7 8 8 6 6 6 6 6 6 6 6 7 8 10 16 20 23 26 27 28 29 31 31 31 31 31 30 29 28 27 27 25 23 20 18 18 18 18 18 18 18 19 19 19 19 17 17 17 16 16 15 14 13 11 9 9 9 10 11 11 11 11 12 13 16 19 21 22 24 25 26 27 25 24 24 24
4 5 9 9 7 7 4 1 4 4 4 3 3 3 5 5 2 4 4 3 6 5 6 7 6 6 5 6 6 6 5 5 6 7 9 13 17 20 25 27 28 29 28 28 30 31 31 31 30 29 28 27 26 24 22 20 20 21 21 22 22 23 23 24 23 22 20 18 16 14 14 14 14 14 14 13 12 10 10 11 11 11 11 11 11 11 13 17 20 22 23 25 26 27 26 23 23
3 5 7 7 4 4 4 3 3 1 3 3 3 1 5 5 4 4 6 4 5 4 5 5 5 5 5 5 5 4 5 5 5 8 10 13 16 19 23 25 26 25 25 27 29 31 32 32 32 31 30 29 27 25 23 22 23 24 25 26 25 24 24 23 21 20 19 17 14 13 13 12 12 12 12 13 13 12 11 11 11 11 11 11 11 10 10 12 15 18 21 23 24 26 27 24 23
3 4 4 7 6 5 5 5 2 3 2 4 2 2 3 5 4 5 8 7 5 4 4 4 4 5 4 4 4 4 4 4 5 6 8 13 16 18 20 22 23 23 24 27 29 31 32 32 32 32 31 30 28 26 24 24 24 24 24 25 25 24 23 21 19 17 16 15 14 15 14 13 13 12 11 11 11 12 12 12 11 12 11 11 11 11 10 10 11 13 17 21 23 24 26 26 25
6 5 6 6 6 5 4 5 2 1 1 5 4 1 2 5 4 2 5 5 4 5 4 4 4 4 4 4 4 5 4 4 5 5 7 12 15 17 18 20 22 23 25 27 28 29 31 31 32 32 32 31 29 27 26 26 26 26 25 25 25 24 22 20 18 17 17 16 15 16 15 14 14 13 13 13 12 12 13 13 12 12 12 12 12 12 11 11 11 12 14 16 19 21 23 26 27
4 5 5 5 5 5 4 5 3 2 1 5 6 3 2 5 4 2 4 4 4 5 4 4 4 4 3 3 3 4 4 4 5 6 9 12 14 16 18 20 22 23 24 25 27 29 30 31 31 32 32 31 29 28 27 28 28 28 28 28 28 27 24 23 22 22 22 21 21 21 19 18 16 15 15 14 14 13 13 14 13 13 13 13 13 13 13 12 12 12 12 14 16 18 20 23 25
4 5 5 6 5 4 4 2 4 2 3 6 8 8 6 4 4 3 3 3 4 8 6 5 5 4 4 3 3 4 3 3 4 6 9 12 13 15 18 20 22 22 23 25 28 29 30 30 30 31 30 29 28 28 28 28 28 29 30 29 29 29 28 27 27 28 27 26 27 26 25 23 22 20 18 17 17 17 15 15 15 14 13 13 13 13 14 14 14 14 14 13 14 16 18 20 22
5 5 4 3 4 4 4 4 4 1 5 6 5 6 6 4 4 2 3 5 2 9 10 10 9 7 5 4 3 3 2 3 3 4 7 10 11 13 16 19 20 22 24 26 28 28 29 29 29 29 29 28 27 27 27 28 28 29 28 28 29 29 29 30 30 29 28 28 28 27 27 27 26 25 24 23 23 22 20 18 16 15 14 14 14 15 14 14 14 14 15 15 15 16 17 18 20
5 4 5 3 2 3 2 3 0 3 6 4 2 5 2 5 3 2 5 7 6 4 10 12 11 9 7 5 4 3 3 3 4 4 4 6 8 11 14 17 20 23 24 25 26 27 27 27 27 28 28 27 26 27 27 28 28 28 27 28 28 28 28 29 29 29 28 28 28 27 28 28 28 27 27 26 26 24 24 22 20 18 17 16 16 16 16 16 16 15 16 16 16 16 17 18 19
4 5 4 4 2 0 3 4 2 4 6 3 2 4 2 5 1 3 4 6 6 1 8 9 9 9 8 6 5 4 3 3 3 4 3 5 8 10 14 17 20 22 22 24 25 25 25 25 26 26 25 25 25 26 26 27 27 27 27 27 27 27 27 27 27 27 26 26 27 27 27 27 27 27 27 26 26 24 24 23 22 20 19 18 17 17 17 17 18 18 17 17 17 17 17 18 19
4 4 5 5 4 4 4 4 3 4 5 3 2 2 2 3 1 3 3 4 5 4 7 7 6 6 5 5 4 4 3 3 3 3 4 6 9 12 15 17 19 20 21 23 23 23 23 23 23 23 23 22 23 23 24 25 25 24 25 25 25 25 25 25 25 25 24 24 25 25 25 26 26 26 25 25 24 24 24 23 23 22 21 20 20 19 18 18 18 18 18 18 18 18 18 19 20
1 3 4 2 4 4 2 3 5 3 3 3 2 2 3 3 1 3 3 4 5 5 5 6 6 5 5 4 4 4 3 3 3 3 4 7 10 12 14 16 17 19 20 21 21 21 21 21 20 20 20 19 19 20 21 21 22 22 23 23 24 24 24 23 23 23 24 24 24 25 25 26 26 25 25 25 25 24 24 24 23 23 23 23 22 22 21 20 19 19 18 18 18 18 18 19 20
2 2 3 4 4 5 2 3 1 3 2 4 2 2 2 0 1 2 3 4 4 3 4 6 5 5 5 5 4 4 4 4 4 4 4 7 9 11 13 14 15 17 18 19 19 19 18 18 17 17 17 17 17 18 18 19 19 20 21 21 22 23 24 24 24 24 25 24 25 26 27 27 27 28 28 28 28 27 26 26 25 24 23 23 23 23 23 23 23 22 20 19 19 18 19 19 19
5 3 5 3 1 4 4 1 3 2 3 4 2 4 3 1 2 1 1 2 3 3 4 5 5 5 6 5 5 4 4 4 4 4 5 7 9 10 11 12 13 14 15 15 16 15 15 15 14 14 15 15 16 16 16 17 17 18 19 19 21 23 23 24 24 24 25 26 26 27 28 28 29 29 29 30 30 30 30 29 29 28 27 26 25 24 24 24 24 25 24 23 21 20 20 20 20
4 3 3 3 2 1 1 2 2 2 4 4 4 5 4 4 4 3 6 9 8 7 6 6 7 7 6 5 5 5 5 4 4 4 4 6 8 8 9 10 10 11 11 11 11 11 11 11 11 12 13 13 13 13 14 15 15 16 16 16 18 20 21 22 23 24 25 27 27 28 29 29 29 30 30 30 31 31 31 31 31 31 31 30 29 28 26 25 24 24 25 25 25 24 24 23 22
3 1 1 1 3 3 2 2 3 2 3 4 5 5 4 5 5 8 11 12 11 10 8 8 9 8 7 6 6 6 5 5 4 4 4 6 7 6 7 8 8 8 8 7 7 6 6 7 8 9 10 11 12 12 12 13 13 13 14 14 15 18 20 21 23 24 24 26 26 27 28 30 31 31 31 31 32 32 32 32 32 32 32 32 32 32 31 29 28 25 24 24 25 26 27 27 26
2 1 1 1 1 1 1 1 3 3 3 3 4 5 5 4 2 6 9 9 12 13 11 9 8 7 7 7 7 6 5 5 5 4 5 7 7 7 8 8 8 7 7 6 6 5 5 5 5 6 8 9 10 11 11 11 11 10 12 12 12 15 19 20 22 23 23 24 25 25 26 27 29 30 30 31 32 32 33 33 33 33 33 33 33 33 32 32 32 31 28 26 25 25 26 27 28
5 4 4 4 3 2 2 3 1 3 3 3 4 6 6 3 1 3 5 7 10 11 10 8 7 8 9 8 7 6 5 6 6 5 7 9 9 9 10 9 7 7 7 8 7 7 6 5 4 4 5 6 7 8 9 9 9 9 10 11 11 13 17 21 24 25 25 25 26 25 25 26 28 29 29 29 30 31 31 32 33 34 35 35 35 35 34 33 33 33 33 31 29 27 27 27 27
Wind_Direction
318 316 319 329 326 333 351 66 52 333 73 69 326 61 245 263 221 131 246 286 3 259 229 212 151 126 111 180 200 201 184 178 172 126 205 250 190 179 182 189 190 174 183 186 189 190 186 185 182 181 182 181 183 182 181 181 181 181 180 180 180 178 176 177 176 171 170 167 163 158 155 157 158 155 151 153 153 159 161 153 156 152 137 137 139 141 139 132 129 137 139 132 133 128 131 128 122
340 335 341 332 327 348 303 78 80 337 48 61 310 160 248 330 37 172 207 211 205 235 222 212 256 108 79 130 179 138 247 224 183 169 236 243 151 179 182 194 204 187 183 184 187 190 188 187 185 184 184 183 183 183 183 184 184 184 184 183 183 182 179 177 176 173 171 169 166 162 158 157 159 157 156 160 161 164 166 165 170 164 144 144 147 143 133 128 129 143 141 140 166 154 147 149 149
356 349 357 350 338 30 38 43 86 53 68 91 291 257 300 24 197 215 217 214 221 227 145 214 340 174 69 26 104 126 272 261 186 190 303 171 164 181 185 196 206 196 185 184 188 191 191 189 188 187 187 187 185 185 185 186 186 186 187 187 186 184 182 179 176 174 172 172 170 169 167 162 162 161 163 165 164 164 169 174 174 168 156 150 145 136 128 125 127 129 89 94 184 177 166 169 194
358 352 352 9 30 27 51 47 113 107 112 152 285 280 287 194 215 242 240 246 250 258 70 82 3 210 117 349 266 166 265 284 207 179 161 189 178 181 187 196 199 192 189 188 191 193 195 192 191 191 189 190 189 188 187 187 188 190 190 189 189 185 184 181 177 176 174 175 173 174 175 172 171 170 172 171 167 167 174 176 171 175 165 150 138 134 132 123 118 100 80 63 218 197 187 187 221
355 357 351 28 71 34 79 77 95 97 164 182 143 276 254 210 218 244 263 284 266 228 141 118 336 278 141 223 187 173 243 284 242 201 186 186 171 178 191 198 192 188 191 192 193 196 197 195 194 194 192 192 192 192 191 190 190 193 193 190 189 186 185 181 179 180 178 178 178 178 178 176 177 180 178 177 174 173 183 175 172 182 162 145 136 133 128 112 107 66 64 328 289 243 221 223 253
356 14 18 46 88 118 86 63 27 311 220 170 152 250 240 223 215 199 294 313 286 226 160 127 202 332 340 251 184 194 224 88 202 206 190 176 162 173 191 198 191 191 192 193 197 199 199 197 197 196 195 193 193 196 195 193 193 196 196 191 191 190 186 184 182 183 183 181 181 179 179 179 184 190 181 180 180 177 190 179 176 181 159 146 140 137 129 117 110 32 307 296 294 260 234 244 286
355 6 20 51 46 52 85 110 202 257 236 173 170 218 222 233 214 146 359 330 340 330 163 210 146 85 294 286 298 240 219 187 189 186 177 167 160 168 187 195 193 195 193 195 198 200 201 200 199 198 198 196 194 197 197 196 197 199 198 193 195 193 187 186 185 184 185 183 182 180 181 184 192 197 183 184 188 181 188 177 174 178 167 159 150 147 146 141 130 123 318 64 252 255 235 269 312
356 5 33 79 33 25 85 127 222 218 246 226 205 208 210 219 197 118 6 222 284 297 342 273 120 79 289 359 294 261 22 207 194 164 167 163 162 167 184 193 195 196 196 198 197 200 202 201 201 200 200 199 197 198 199 199 198 200 199 196 196 195 189 188 189 186 187 186 185 184 186 190 197 198 186 187 191 183 182 173 171 180 177 172 165 162 163 165 174 229 282 228 251 268 307 343 77
18 34 53 77 58 26 40 325 281 232 266 282 256 230 219 206 163 96 76 316 341 272 287 257 144 39 293 355 273 278 7 183 161 151 160 161 165 168 182 192 197 197 197 199 197 199 202 204 204 202 202 201 201 201 202 200 200 200 199 197 196 197 193 193 193 189 188 188 188 189 192 196 200 198 190 190 189 183 180 174 175 189 192 195 195 186 184 185 204 237 231 238 259 285 320 43 116
31 33 77 70 72 36 359 298 305 277 270 282 265 256 252 209 103 68 79 317 13 42 294 247 81 308 298 322 277 309 2 181 154 154 160 162 166 172 184 192 199 200 198 200 200 199 200 205 206 206 205 204 204 205 206 203 202 203 201 200 199 199 198 197 196 193 192 191 190 193 198 202 204 198 194 193 189 188 183 180 187 199 207 214 220 212 210 208 203 205 225 248 258 272 300 127 132
33 356 80 76 60 56 312 261 294 286 283 305 300 277 261 208 91 52 39 324 6 46 310 48 39 272 344 303 267 322 237 195 176 169 167 168 173 178 186 191 198 205 205 204 203 202 200 204 207 209 209 207 207 208 209 206 206 205 205 204 202 202 202 203 199 196 195 193 193 197 203 207 207 198 196 196 193 196 191 193 201 209 222 229 231 227 227 222 213 192 215 251 252 245 238 145 141
65 339 60 85 98 180 203 239 278 279 299 321 293 283 257 113 83 8 323 305 358 10 289 197 161 190 26 303 265 320 240 193 191 185 183 178 179 179 185 191 198 206 210 210 208 207 203 202 207 210 212 211 210 211 212 208 209 208 208 208 206 205 205 206 205 202 198 194 195 202 207 210 209 201 198 199 196 201 200 204 214 222 237 241 230 226 232 225 216 196 214 242 241 202 163 151 146
93 103 77 78 175 180 210 232 269 299 325 291 225 285 21 57 336 220 204 259 334 359 283 211 161 95 256 276 283 325 268 203 203 210 203 184 180 179 185 193 197 203 210 214 215 213 207 205 206 209 213 214 213 214 215 212 211 211 211 211 209 209 209 209 208 208 204 198 199 204 210 212 211 203 198 199 200 207 209 214 226 237 245 241 221 217 225 212 200 205 222 237 236 182 157 157 151
113 138 101 70 306 148 214 271 321 36 331 270 254 313 1 346 256 197 152 323 292 252 249 204 149 94 262 300 319 312 258 217 208 209 204 185 185 184 187 195 198 202 209 215 219 219 214 210 208 209 211 214 215 215 216 215 213 213 213 213 212 212 213 212 211 211 210 206 205 206 211 212 211 205 200 202 207 214 218 224 236 241 243 242 220 206 205 195 197 217 229 236 232 193 164 164 159
125 118 92 97 1 348 245 276 16 99 267 262 272 336 347 298 231 266 191 265 277 231 247 234 139 170 236 285 273 270 286 232 203 199 198 191 191 190 193 197 201 204 208 215 220 223 219 215 212 211 212 213 215 216 216 216 216 215 215 215 214 214 214 214 214 214 213 212 211 210 212 213 210 206 203 206 211 218 223 231 238 236 237 246 224 198 189 190 206 221 230 234 228 199 169 171 168
112 105 71 65 348 333 258 230 107 80 287 245 276 2 352 306 52 328 244 164 285 284 349 229 193 215 198 203 250 283 322 243 203 199 197 195 194 197 201 201 205 207 208 213 219 224 222 219 216 215 214 214 215 217 218 218 218 217 217 216 215 215 215 216 217 218 216 215 216 214 213 214 212 209 208 210 215 220 227 233 235 232 235 244 224 198 187 193 213 224 230 232 222 195 177 176 175
62 77 69 34 223 234 226 196 124 61 285 273 312 8 126 298 320 279 251 99 315 293 294 241 230 209 195 222 265 315 317 232 206 203 195 193 197 203 209 207 208 209 210 213 218 222 223 222 221 219 218 217 217 218 219 220 219 219 219 218 218 217 217 218 220 220 219 218 220 217 215 215 214 212 211 213 216 221 230 234 233 234 238 243 230 207 193 194 216 230 231 226 210 186 179 180 181
51 78 97 238 199 209 192 175 172 163 279 281 310 326 180 280 306 315 324 13 333 300 292 272 277 262 235 251 275 302 286 225 209 203 196 197 200 207 213 215 214 215 214 216 219 221 223 225 225 223 221 220 219 219 220 221 221 220 221 220 220 220 220 220 222 222 221 221 222 220 216 216 214 212 212 214 217 222 229 232 233 237 242 246 238 221 208 199 207 222 224 214 195 176 177 182 184
87 116 118 230 204 216 200 183 192 185 257 265 288 273 217 250 271 345 311 299 323 314 292 294 296 278 260 261 270 281 247 215 214 206 204 207 210 216 220 221 221 225 223 221 223 223 225 226 226 226 225 223 220 220 221 222 222 222 222 222 222 222 222 222 223 223 222 222 222 221 219 217 216 214 214 216 219 223 228 231 235 240 245 247 244 233 221 207 204 212 218 206 185 174 181 185 187
154 120 134 240 219 236 246 219 214 219 225 261 280 269 277 272 239 308 307 297 304 285 277 291 293 287 287 265 251 250 221 212 216 213 216 220 224 227 228 229 229 234 235 233 232 228 228 228 228 229 229 226 222 222 223 223 224 223 223 223 223 223 223 223 224 224 222 223 222 221 220 218 218 218 218 218 220 225 228 231 236 240 244 244 243 238 225 211 207 212 217 205 184 180 187 190 193
173 134 183 231 208 235 266 257 246 233 193 236 274 314 316 287 230 284 334 323 297 268 253 248 266 283 294 288 274 234 214 217 220 221 228 233 237 237 239 242 244 248 247 243 239 234 233 233 232 232 231 229 227 225 224 226 225 224 223 223 224 223 223 223 223 225 224 223 222 222 221 219 220 221 220 220 221 225 227 230 233 237 240 239 239 238 226 213 210 214 216 205 187 188 192 194 199
163 215 210 223 173 217 268 266 287 312 334 299 297 308 300 299 313 271 276 287 271 258 243 237 252 268 283 293 304 275 219 222 225 228 235 239 243 245 248 250 250 250 247 243 242 242 239 236 236 234 233 231 231 230 228 228 227 225 224 223 223 223 223 223 223 225 224 223 222 222 221 220 221 222 221 221 223 225 228 230 233 236 238 238 237 236 227 216 215 218 220 210 192 192 194 198 204
212 274 256 245 213 225 276 299 313 335 326 292 290 289 309 353 312 266 228 251 252 256 245 250 266 271 283 296 304 298 278 262 253 254 259 262 266 268 269 269 265 258 250 248 249 248 243 239 237 234 233 233 233 234 231 230 230 229 227 224 223 223 224 224 224 224 224 224 223 222 222 222 221 221 221 222 224 227 230 233 234 236 238 239 238 237 230 222 220 222 224 215 198 197 198 201 205
206 261 286 272 237 228 263 297 293 290 259 256 266 328 315 293 297 319 273 264 264 269 254 251 271 283 297 315 319 319 329 335 338 350 1 353 337 324 317 309 296 284 268 261 260 254 249 245 238 234 234 234 234 233 232 232 233 232 231 228 225 225 225 225 225 224 224 224 224 223 223 223 222 221 222 224 227 229 232 235 236 237 238 239 240 238 233 226 223 223 225 217 204 201 201 203 207
195 229 281 290 268 245 262 276 274 276 263 255 297 299 272 251 271 323 278 273 276 286 310 264 273 299 319 354 8 15 22 14 15 27 34 30 28 30 26 15 356 330 297 279 276 268 258 250 240 235 235 235 235 232 232 233 234 234 232 231 228 227 227 227 228 226 225 224 224 224 223 224 224 224 225 227 230 232 234 236 236 237 237 239 240 239 235 229 225 224 226 222 210 205 206 207 209
209 204 254 276 285 279 280 277 269 274 267 255 298 284 276 256 226 272 266 263 275 313 332 295 317 339 351 34 39 41 40 28 20 23 28 28 32 31 26 26 26 21 3 322 293 279 268 258 246 240 237 236 234 232 232 233 234 234 233 233 231 231 230 231 231 230 229 227 226 226 225 226 228 228 229 230 232 234 235 236 236 237 237 239 241 240 237 232 228 226 227 226 216 211 212 213 215
221 225 270 267 283 288 268 267 275 279 267 232 240 268 281 290 190 267 268 260 288 341 314 317 17 11 34 60 53 44 42 31 21 24 25 23 24 21 19 21 22 22 18 10 344 298 275 269 258 248 242 237 234 233 234 233 233 234 235 235 234 234 234 234 233 233 233 231 232 231 230 231 232 234 234 234 236 237 237 237 237 237 237 238 240 242 240 236 231 229 230 229 223 217 217 219 222
222 292 310 300 316 305 272 267 275 274 277 211 185 253 294 360 168 235 255 271 326 332 309 355 38 38 63 69 54 46 41 32 27 32 28 18 16 14 17 19 17 22 22 19 15 355 286 277 273 257 245 239 235 236 237 235 235 235 235 234 234 235 235 235 234 235 236 236 237 236 235 236 237 239 238 238 239 239 239 239 239 238 238 238 239 242 242 238 233 231 233 233 232 229 226 224 225
251 49 324 303 351 322 283 281 245 183 254 189 150 317 318 252 217 237 252 288 330 319 316 20 48 57 70 65 56 50 37 33 32 32 26 19 17 15 20 22 23 27 28 27 28 27 15 311 274 263 249 241 239 239 239 238 238 235 234 233 233 234 234 235 237 238 239 239 239 239 240 241 241 242 242 242 242 241 241 240 241 240 240 239 240 242 242 238 234 231 231 233 236 235 232 227 226
301 34 292 297 358 320 280 291 131 169 207 175 142 345 286 256 244 253 267 297 326 315 328 32 52 64 69 59 57 51 36 34 32 29 23 22 21 20 23 26 31 35 37 41 43 41 37 35 284 262 248 244 243 242 242 240 238 235 233 232 232 232 232 235 237 238 240 241 242 243 245 245 245 245 245 245 243 242 242 241 242 242 241 239 240 242 242 238 234 232 231 232 236 237 233 228 225
314 339 4 330 344 281 291 304 282 322 283 155 134 176 254 268 274 275 278 272 307 311 345 42 59 66 64 56 57 50 40 35 31 28 25 25 25 26 28 31 37 41 46 51 52 53 53 55 54 290 240 242 242 240 241 240 239 235 233 231 230 232 232 233 235 237 239 241 243 245 247 248 247 246 246 245 243 242 242 242 243 244 243 241 241 242 242 239 234 233 233 233 235 235 233 230 228
26 318 311 335 193 263 306 301 202 209 287 95 121 199 262 272 277 281 287 352 358 333 11 53 66 64 61 55 54 51 42 36 32 28 24 26 27 29 32 36 41 44 49 54 58 61 63 64 65 68 74 168 241 243 243 241 240 236 234 233 233 235 236 238 239 240 241 242 243 245 248 248 248 247 246 245 243 242 243 244 245 246 244 243 243 242 241 239 235 234 235 235 235 233 231 229 230
349 177 245 269 201 254 313 306 249 164 180 59 136 206 278 276 276 284 297 347 6 11 40 67 72 62 62 57 51 50 40 34 30 24 22 26 29 32 36 40 45 48 51 56 59 63 65 66 68 70 69 71 74 75 102 212 228 228 229 230 231 234 237 241 242 243 244 244 245 246 247 246 246 246 246 245 243 241 242 243 244 244 243 245 246 244 242 241 237 235 235 236 235 234 233 231 231
314 309 221 243 210 202 280 300 333 40 75 27 269 216 256 275 286 291 302 340 5 31 71 83 80 68 64 61 54 50 42 38 28 19 20 25 31 37 41 44 48 51 53 57 60 63 66 67 69 71 72 74 75 77 81 86 95 104 116 131 152 181 210 229 236 240 243 245 247 249 248 246 244 244 244 243 242 241 240 241 242 242 242 243 245 245 244 242 239 236 236 235 234 234 235 236 236
241 238 221 262 252 228 252 272 301 6 21 307 301 295 270 281 287 288 306 346 6 47 93 93 82 74 64 59 56 50 46 44 30 20 24 30 35 39 43 47 49 51 53 56 60 63 65 67 69 71 70 71 73 75 78 82 84 85 87 91 91 85 86 108 149 213 234 244 250 254 255 250 246 244 243 243 241 240 238 238 240 241 241 241 242 243 241 239 238 237 237 235 233 233 237 241 242
213 225 200 228 261 259 258 261 265 344 350 290 281 278 273 285 286 291 313 353 33 73 92 82 75 72 63 60 55 49 49 44 29 27 32 36 39 42 45 49 51 52 53 55 59 60 60 62 66 67 66 68 70 69 69 71 71 70 70 71 69 63 60 62 62 58 55 44 9 324 285 262 250 244 241 241 241 240 240 239 239 240 240 240 239 238 238 240 241 240 238 235 232 231 235 238 241
205 230 226 237 249 270 268 267 279 314 325 274 263 262 271 273 281 304 325 15 64 85 90 79 74 68 61 63 57 51 51 40 32 34 37 40 43 46 48 50 53 54 53 55 56 55 54 56 59 60 62 66 68 67 67 67 66 64 62 63 60 56 52 49 46 43 40 38 37 37 30 358 287 259 248 243 240 239 239 238 238 239 240 240 241 242 242 243 242 241 238 234 232 232 233 235 236
224 235 260 273 249 256 257 249 280 299 159 257 274 322 289 275 289 332 356 45 59 73 93 89 82 77 65 60 56 51 50 37 36 36 36 39 43 46 48 49 51 51 51 55 57 55 55 56 54 54 58 63 66 69 73 74 74 75 74 73 69 62 55 50 48 44 39 36 35 33 33 30 15 346 315 290 271 257 248 243 239 238 238 240 243 244 242 239 238 237 235 233 232 233 235 236 232
185 191 200 261 249 267 277 264 289 339 157 254 308 340 283 279 341 23 26 62 59 52 78 81 80 79 63 53 50 45 47 38 36 34 33 36 39 44 47 47 46 46 50 56 59 60 59 57 54 53 54 58 63 68 73 76 80 83 83 80 78 74 65 59 57 52 45 41 37 34 30 25 19 10 358 347 335 321 302 279 264 253 246 243 241 240 238 237 237 236 236 235 234 232 234 235 232
196 188 178 238 235 205 272 279 301 322 254 272 321 318 281 273 73 59 39 68 76 64 72 69 68 77 66 57 49 40 46 39 38 36 33 37 39 40 43 46 46 45 47 51 55 58 59 59 58 57 55 55 59 66 73 81 86 87 87 85 85 83 76 72 67 57 47 41 37 34 30 25 20 12 3 354 346 342 339 329 312 291 275 264 255 249 246 244 242 241 240 239 236 231 231 234 234
247 213 203 227 223 205 229 280 315 332 343 3 19 335 296 261 213 98 72 73 76 67 74 69 58 67 69 66 55 43 44 39 42 42 34 40 43 41 43 46 48 48 48 49 52 56 59 61 62 62 60 56 56 60 67 80 87 87 88 86 83 79 69 62 57 50 45 41 37 34 30 27 24 20 14 4 352 344 341 338 334 325 315 301 284 272 263 259 254 250 247 244 240 236 236 238 237
284 233 212 214 219 222 225 341 14 17 340 330 38 350 295 294 283 154 140 84 69 58 61 68 55 51 56 60 56 44 41 40 43 46 41 43 45 46 47 47 47 48 49 53 57 60 62 62 63 64 64 61 57 57 61 68 73 73 74 71 67 63 57 51 48 46 45 43 38 35 32 29 27 26 24 17 8 358 348 339 335 331 329 326 316 302 284 273 266 262 258 254 249 246 244 242 240
279 250 206 193 182 190 179 132 88 121 247 289 56 141 267 313 320 192 165 111 88 73 59 67 60 52 54 57 55 45 39 38 42 47 45 45 45 46 49 49 49 49 52 58 61 63 65 64 64 64 64 63 60 58 59 64 67 67 68 67 63 60 56 51 50 50 49 46 42 36 32 29 23 22 22 18 14 10 4 355 346 337 331 330 327 321 311 294 281 274 270 264 261 257 250 243 244
244 247 139 132 136 156 163 131 131 211 249 318 360 154 253 292 280 208 153 122 109 100 80 77 71 64 61 55 53 48 40 35 44 50 44 45 47 46 48 51 54 55 58 62 63 63 65 66 66 66 65 65 63 61 60 61 64 66 67 67 64 60 57 53 51 50 49 46 45 40 35 32 27 21 13 6 3 2 1 360 356 351 343 336 331 326 322 315 301 288 279 273 269 263 254 248 247
240 215 125 120 135 143 127 104 105 290 5 307 285 158 249 265 272 217 153 153 167 159 141 119 101 87 74 64 57 47 38 37 45 55 52 51 54 54 55 57 59 61 63 65 66 67 67 67 67 67 65 64 64 64 64 63 64 65 66 66 65 62 59 57 53 49 46 42 41 38 33 31 28 25 19 11 2 357 353 349 346 346 346 345 341 335 328 322 315 303 294 287 281 273 265 258 252
214 153 100 61 71 83 77 103 112 31 349 252 235 180 207 266 280 209 186 223 206 169 154 144 129 117 106 91 77 60 46 40 46 60 63 61 63 63 65 66 63 63 65 67 69 70 70 68 68 67 64 63 63 64 64 63 62 62 62 63 63 61 60 58 56 51 47 44 42 39 34 31 26 22 18 12 6 1 355 350 344 339 336 336 336 338 336 331 325 318 308 301 294 288 281 271 262
127 94 56 28 28 43 45 72 89 56 278 250 223 192 183 266 286 197 192 261 198 157 151 161 149 135 137 127 101 86 65 54 54 61 65 66 69 70 70 68 65 65 67 69 70 70 70 69 68 67 65 64 64 63 64 63 62 61 60 60 59 58 56 55 54 50 47 46 45 42 40 38 35 30 23 18 12 6 359 353 349 343 334 328 326 328 331 330 327 323 318 311 304 298 293 287 277
93 79 63 41 345 9 23 358 45 123 254 267 235 185 167 226 266 269 289 311 239 169 165 167 159 150 152 142 126 115 95 83 67 59 61 62 64 65 66 66 64 65 66 67 69 70 71 71 71 70 66 65 65 65 65 65 63 62 61 60 59 57 55 54 52 49 46 45 43 41 40 39 37 35 30 27 22 16 9 2 354 348 342 336 331 326 323 323 322 319 316 313 310 306 301 297 291
79 90 82 75 331 351 354 305 349 216 252 270 177 132 165 236 239 309 307 321 309 194 160 158 155 151 155 156 153 150 132 105 84 71 62 62 62 61 64 64 64 65 66 68 69 71 72 72 72 72 68 67 67 66 66 65 64 63 62 61 60 59 57 55 53 50 46 44 41 39 37 36 34 33 31 28 25 21 18 13 7 360 351 342 334 328 323 320 318 316 313 310 308 307 306 303 299
137 144 125 121 142 205 264 264 267 263 269 274 164 135 271 268 296 338 311 319 319 106 128 140 145 146 155 159 157 150 129 103 87 88 80 74 71 68 68 69 69 70 71 72 72 73 74 74 74 75 73 71 70 69 68 67 65 64 63 62 61 59 57 55 53 50 47 44 41 38 36 33 31 29 27 25 22 20 20 18 14 9 2 353 342 333 325 321 317 314 312 310 307 305 305 305 303
176 157 136 146 160 173 222 227 214 254 280 288 247 185 210 225 293 325 325 345 358 67 104 117 122 132 141 135 139 138 119 101 95 94 86 79 77 76 76 76 76 76 75 74 74 74 74 74 74 75 73 71 71 70 68 67 65 63 62 60 58 56 54 52 50 46 43 41 37 35 32 29 27 25 23 21 18 15 14 13 12 10 6 2 356 349 340 331 324 318 314 311 308 307 306 304 303
220 130 114 171 189 168 208 221 183 193 292 285 230 214 204 184 264 335 20 37 40 59 89 109 118 130 134 139 155 153 136 124 111 99 86 83 83 83 83 81 80 78 76 74 72 71 71 71 71 71 70 70 69 68 67 64 62 59 57 54 51 49 46 43 41 37 34 31 29 27 24 21 19 16 15 14 12 11 8 6 6 4 2 0 358 355 351 345 339 330 324 318 312 310 309 305 304
168 128 179 216 181 133 124 271 233 98 271 266 210 230 285 335 275 333 46 61 72 79 107 130 148 159 159 172 178 169 160 142 122 116 108 99 95 91 88 85 82 79 75 72 68 67 69 69 69 70 69 68 66 64 63 60 58 55 51 48 44 41 38 34 31 28 24 23 21 19 17 14 12 9 7 5 4 3 2 1 360 358 357 355 353 351 349 347 344 340 336 331 325 320 313 307 305
132 165 214 201 109 87 97 237 322 18 251 274 273 238 251 240 247 285 86 159 178 183 174 168 184 187 183 189 191 192 178 152 138 134 123 113 105 97 93 88 83 80 75 72 71 69 70 71 71 71 69 66 63 61 59 55 52 49 44 42 38 34 32 28 25 21 18 16 15 13 10 9 6 4 1 359 357 356 355 354 353 352 351 350 349 347 345 342 340 339 338 336 334 331 324 315 310
129 187 204 122 129 254 83 165 227 243 246 279 292 268 242 208 208 194 200 203 193 191 192 193 202 198 193 197 201 203 185 165 159 153 139 123 113 105 101 98 93 90 84 80 79 76 76 76 75 76 75 71 68 65 61 56 52 48 43 40 38 33 30 25 20 16 12 10 7 5 3 2 1 359 356 353 353 351 350 349 347 346 345 344 343 342 341 339 337 335 333 333 333 332 330 325 320
65 76 353 71 167 180 170 175 173 189 228 259 286 291 267 237 201 183 201 198 181 183 192 198 204 199 196 197 196 195 187 184 177 167 164 143 129 124 122 121 116 111 106 104 103 99 97 90 84 86 84 80 77 71 67 62 57 52 45 41 37 30 25 20 14 10 7 4 2 359 357 355 354 354 351 349 347 346 345 344 342 341 340 338 338 337 336 335 334 332 330 328 327 328 327 326 324
118 134 206 237 194 154 226 215 136 148 191 225 269 274 262 260 194 185 206 194 176 182 186 193 202 200 204 205 197 194 189 187 184 177 178 166 153 149 145 142 141 139 142 146 150 155 146 126 102 92 86 81 78 75 71 67 63 57 49 44 35 24 18 13 7 4 360 358 356 354 352 349 347 347 346 343 342 341 340 338 337 336 335 333 332 331 331 330 328 328 326 324 323 322 320 320 321
154 172 192 186 164 138 236 255 188 148 180 190 232 265 268 269 263 227 222 186 177 184 180 183 197 201 208 211 200 194 190 188 191 186 184 177 166 160 159 159 164 169 173 170 166 165 159 150 130 106 91 83 78 75 73 68 64 58 46 39 29 14 9 5 0 357 354 351 349 348 346 342 340 340 339 337 335 334 333 332 331 330 329 328 327 326 326 325 324 322 322 321 321 319 316 315 315